Weather History for KAQW - April, 2014

Change the Weather History Date:

Thursday, April 24, 2014

  Actual Average Record
Temperature  
Mean Temperature 45 °F -  
Max Temperature 54 °F 58 °F 84 °F (2001)
Min Temperature 36 °F 34 °F 26 °F (2002)
Degree Days  
Heating Degree Days 20    
Moisture  
Dew Point 17 °F    
Average Humidity 34    
Maximum Humidity 52    
Minimum Humidity 22    
Precipitation  
Precipitation 0.00 in - - ()
Sea Level Pressure  
Sea Level Pressure 29.86 in    
Wind  
Wind Speed 10 mph (WNW)    
Max Wind Speed 14 mph    
Max Gust Speed 29 mph    
Visibility 10 miles    
Events      
Averages and records for this station are not official NWS values.
T = Trace of Precipitation, MM = Missing Value Source: NWS Daily Summary

Daily Weather History Graph

Daily Weather History Graph

Search for Another Location

Airport or City:

Trip Planner

Search our weather history database for the weather conditions in past years. The results will help you decide how hot, cold, wet, or windy it might be!

Date:

Astronomy

Apr. 24, 2014 Rise Set
Actual Time 5:57 AM EDT 7:45 PM EDT
Civil Twilight 5:27 AM EDT 8:15 PM EDT
Nautical Twilight 4:50 AM EDT 8:52 PM EDT
Astronomical Twilight 4:11 AM EDT 9:31 PM EDT
Moon 3:13 AM EDT (4/24) 2:51 PM EDT (4/24)
Length of Visible Light 14h 48m
Length of Day
13h 47m
Waning Crescent, 24% of the Moon is Illuminated
Apr 24
Waning Crescent
Apr 29
New
May 6
First Quarter
May 14
Full
May 21
Last Quarter

Hourly Weather History & Observations

Time (EDT) Temp. Windchill Dew Point Humidity Pressure Visibility Wind Dir Wind Speed Gust Speed Precip Events Conditions
12:52 AM 42.1 °F 36.6 °F 21.0 °F 43% 29.77 in 10.0 mi West 9.2 mph 20.7 mph N/A   Partly Cloudy
1:52 AM 41.0 °F 35.2 °F 19.9 °F 43% 29.77 in 10.0 mi West 9.2 mph - N/A   Clear
2:52 AM 39.0 °F 33.4 °F 21.0 °F 49% 29.77 in 10.0 mi West 8.1 mph 19.6 mph N/A   Clear
3:52 AM 37.9 °F 32.1 °F 18.0 °F 45% 29.78 in 10.0 mi West 8.1 mph - N/A   Clear
4:52 AM 37.0 °F 31.0 °F 14.0 °F 39% 29.79 in 10.0 mi West 8.1 mph - N/A   Clear
5:52 AM 36.0 °F 27.1 °F 12.9 °F 39% 29.80 in 10.0 mi West 13.8 mph 23.0 mph N/A   Clear
6:52 AM 36.0 °F 27.5 °F 14.0 °F 41% 29.83 in 10.0 mi West 12.7 mph - N/A   Clear
7:52 AM 37.9 °F 29.6 °F 15.1 °F 39% 29.85 in 10.0 mi West 13.8 mph 24.2 mph N/A   Clear
8:52 AM 39.0 °F 31.4 °F 15.1 °F 38% 29.86 in 10.0 mi WNW 12.7 mph 28.8 mph N/A   Clear
9:52 AM 42.1 °F 36.6 °F 15.1 °F 34% 29.87 in 10.0 mi WNW 9.2 mph 25.3 mph N/A   Clear
10:52 AM 44.1 °F 38.1 °F 19.0 °F 37% 29.88 in 10.0 mi WNW 11.5 mph 25.3 mph N/A   Clear
11:52 AM 46.9 °F - 19.9 °F 34% 29.88 in 10.0 mi WNW 11.5 mph 24.2 mph N/A   Clear
12:52 PM 50.0 °F - 21.0 °F 32% 29.86 in 10.0 mi WNW 8.1 mph 26.5 mph N/A   Clear
1:52 PM 51.1 °F - 18.0 °F 27% 29.85 in 10.0 mi NW 12.7 mph 26.5 mph N/A   Clear
2:52 PM 53.1 °F - 18.0 °F 25% 29.86 in 10.0 mi WNW 12.7 mph 27.6 mph N/A   Clear
3:52 PM 54.0 °F - 19.0 °F 25% 29.86 in 10.0 mi WNW 12.7 mph 25.3 mph N/A   Clear
4:52 PM 54.0 °F - 19.0 °F 25% 29.87 in 10.0 mi NW 11.5 mph 25.3 mph N/A   Clear
5:52 PM 53.1 °F - 17.1 °F 24% 29.88 in 10.0 mi NW 8.1 mph 23.0 mph N/A   Clear
6:52 PM 52.0 °F - 14.0 °F 22% 29.91 in 10.0 mi NW 10.4 mph 21.9 mph N/A   Clear
7:52 PM 50.0 °F - 12.0 °F 22% 29.94 in 10.0 mi WNW 8.1 mph 18.4 mph N/A   Clear
8:52 PM 46.9 °F - 12.9 °F 25% 29.98 in 10.0 mi West 8.1 mph - N/A   Clear
10:52 PM 44.1 °F 41.5 °F 14.0 °F 30% 30.00 in 10.0 mi WSW 4.6 mph - N/A   Clear
11:52 PM 36.0 °F - 19.9 °F 52% 30.01 in 10.0 mi Calm Calm - N/A   Clear